Lexington Weather

Lexington, Massachusetts, USA

33°F
10/30/2020 7:32am 
  • Lexington Conditions: Light snow, Mist, Overcast
  • Temperature: 33.4°F / 0.8°CColder 0.9°F than last hour.
  • Dew Point: 32.7°FDecreased 0.9°Fsince last hour.
  • Relative Humidity: 97
  • Wind: Wind from NNE NNE 1 mph, 10-min avg: 2 mph, gust: 6 mph
  • Barometer: 29.79 inRising 0.04  inHg/hr Rising Slowly
  • Visibility: 2 miles
  • Snow Today: Trace
  •   
Southeast Middlesex County - Winter Weather Advisory
 - SEE ALL NEARBY ALERTS -

Regional Weather Roundup
for Boston / Norton, MA

        
000
ASUS41 KBOX 282305
RWRBOX

REGIONAL WEATHER ROUNDUP
NATIONAL WEATHER SERVICE BOSTON/NORTON MA
700 PM EDT WED OCT 28 2020

NOTE:  "FAIR" INDICATES FEW OR NO CLOUDS BELOW 12,000 FEET WITH NO 
SIGNIFICANT WEATHER AND/OR OBSTRUCTIONS TO VISIBILITY.

MAZALL-290000-
EASTERN MASSACHUSETTS
  
CITY           SKY/WX    TMP DP  RH WIND       PRES   REMARKS
BOSTON         DRIZZLE   47  45  93 NW9       29.95S FOG              
BEVERLY        LGT RAIN  47  45  93 NW10      29.94R FOG              
LAWRENCE       LGT RAIN  45  44  97 NW5       29.98R FOG              
BEDFORD        CLOUDY    46  45  96 NW5       29.94S FOG              
BLUE HILL        N/A     45  45 100 NW8       29.92R                  
NORWOOD        CLOUDY    49  46  90 NW6       29.94R                  
MARSHFIELD     CLOUDY    52  52 100 CALM      29.93S                  
PLYMOUTH       CLOUDY    51  49  92 NW6       29.93R                  
TAUNTON        CLOUDY    52  50  93 NW3       29.94R                  
NEW BEDFORD    CLOUDY    52  51  97 NW5       29.94R                  
$$

MAZALL-290000-
CAPE COD AND THE ISLANDS
  
CITY           SKY/WX    TMP DP  RH WIND       PRES   REMARKS
FALMOUTH       CLOUDY    50  50 100 N3        29.93R                  
HYANNIS        CLOUDY    53  52  96 W5        29.91R                  
CHATHAM        CLOUDY    55  53  93 VRB3      29.92R                  
PROVINCETOWN   CLOUDY    53  52  96 NW9       29.93R                  
NANTUCKET      MOCLDY    59  58  96 W12       29.91R                  
MARTHAS VNYRD  CLOUDY    56  54  93 NW8       29.93R                  
$$
 
MAZALL-290000-
CENTRAL AND WESTERN MASSACHUSETTS
  
CITY           SKY/WX    TMP DP  RH WIND       PRES   REMARKS
WORCESTER      CLOUDY    46  44  93 W6        29.93F FOG              
FITCHBURG      CLOUDY    45  44  97 CALM      29.95F                  
ORANGE         CLOUDY    46  45  96 CALM      29.95F                  
SPRINGFIELD    MOCLDY    44  43  97 CALM      29.95S FOG              
WESTFIELD      CLOUDY    47  47 100 S3        29.96S                  
NORTH ADAMS    CLOUDY    48  46  93 NW3       29.95R                  
PITTSFIELD     PTCLDY    45  43  93 W3        29.94R                  
$$
 
RIZALL-290000-
RHODE ISLAND
  
CITY           SKY/WX    TMP DP  RH WIND       PRES   REMARKS
PROVIDENCE     CLOUDY    51  50  96 NW7       29.96R                  
NEWPORT        CLOUDY    51  50  96 NW8       29.95R                  
BLOCK ISLAND   CLOUDY    53  50  89 NW9G18    29.96R                  
SMITHFIELD     CLOUDY    48  48 100 NW6       29.95R FOG              
WESTERLY       PTCLDY    52  49  89 CALM      29.96S                  
$$
 
CTZALL-290000-
CONNECTICUT
  
CITY           SKY/WX    TMP DP  RH WIND       PRES   REMARKS
BRADLEY INTL   MOCLDY    48  45  89 N3        29.96S                  
HARTFORD       CLOUDY    51  47  86 CALM      29.96F                  
BRIDGEPORT     PTCLDY    55  51  86 CALM      29.97R                  
DANBURY        CLOUDY    51  50  96 S3        29.97S                  
GROTON         PTCLDY    51  48  89 W5        29.96S                  
NEW HAVEN      PTCLDY    52  49  89 CALM      29.97R                  
CHESTER        NOT AVBL                                               
MERIDEN        MOCLDY    48  46  93 CALM      29.96S                  
WILLIMANTIC    CLOUDY    50  49  96 CALM      29.97R                  
OXFORD         CLOUDY    50  50 100 CALM      29.97S                  
$$

MEZ002-015-021-024-NHZ003-005-008-011-012-014-VTZ005-008-290000-
NORTHERN NEW ENGLAND
  
CITY           SKY/WX    TMP DP  RH WIND       PRES   REMARKS
PORTLAND ME    CLOUDY    39  39 100 NW5       29.97R FOG              
BANGOR ME      CLOUDY    36  30  79 CALM      29.97R                  
CONCORD NH     CLOUDY    44  42  93 CALM      29.97R                  
MANCHESTER NH  CLOUDY    45  42  89 CALM      29.94S                  
NASHUA NH      CLOUDY    43  43 100 CALM      29.97R                  
PORTSMOUTH NH  DRIZZLE   43  42  96 NW6       29.95R FOG              
JAFFREY NH     CLOUDY    45  42  89 CALM      29.94R                  
KEENE NH       CLOUDY    46  45  96 CALM      29.95F                  
BURLINGTON VT  MOCLDY    47  43  86 S9        29.90R                  
MT. WASHINGTON FOG       25  25 100 W45         N/A  VSB 1/16WCI   5  
$$

NYZ052-076-290000-
EASTERN NEW YORK
  
CITY           SKY/WX    TMP DP  RH WIND       PRES   REMARKS
ALBANY         MOCLDY    42  42 100 CALM      29.97R                  
NEW YORK CITY  CLOUDY    59  51  75 SW7       29.98R                  
$$
 
ANZALL-290000-
MARINE OBSERVATIONS
  
STATION/POSITION TIME  TEMP    WIND        PRES    VSBY  WAVE
                       AIR SEA DIR/SP/G                  HT/PER
                 (UTC) (F)     (DEG/KT/KT) (MB)    (MI)  (FT/S)
BOSTON BUOY      NOT AVBL
BUZZARDS BAY     2200          310/ 12/ 13 1014.1R
NANTUCKET SOUND  2250      60  300/ 10/ 12   N/A           1/ 4
MASS BAY-STELLWA 2204   52 56  230/  6/ 10 1012.4F  1 1/2  3/ 8
ISLE OF SHOALS   2200   45      10/ 13/ 15 1013.3F
S OF BLOCK IS    2226      62                N/A           5/ 5
$$

......................KEY.........................
  SKY/WX - SKY CONDITION/PRESENT WEATHER
  TMP    - TEMPERATURE IN FAHRENHEIT
  DWPT   - DEWPOINT IN FAHRENHEIT
  RH     - RELATIVE HUMIDITY IN PERCENT
  WIND   - DIRECTION AND SPEED IN MPH
  PRES   - MEAN SEA LEVEL PRESSURE IN INCHES OF HG
  WCI    - WIND CHILL INDEX
  VSB    - VISIBILITY IN MILES
  HX     - HEAT INDEX
  TC     - TEMPERATURE IN CELSIUS
  VRB    - VARIABLE WIND DIRECTION
  N/A    - NOT AVAILABLE
  
      

Other recent Regional Weather Roundups

Fri Oct 30, 7:04am

Fri Oct 30, 6:04am

Fri Oct 30, 5:04am

Fri Oct 30, 4:04am

Fri Oct 30, 3:04am

Fri Oct 30, 2:04am

Fri Oct 30, 1:04am

Fri Oct 30, 12:04am

Thu Oct 29, 11:04pm

Thu Oct 29, 10:04pm

Thu Oct 29, 9:04pm

Thu Oct 29, 8:04pm

Thu Oct 29, 7:04pm

Thu Oct 29, 6:04pm

Thu Oct 29, 5:05pm

Thu Oct 29, 4:05pm

Thu Oct 29, 3:05pm

Thu Oct 29, 2:04pm

Thu Oct 29, 1:04pm

Thu Oct 29, 12:04pm

Thu Oct 29, 11:04am

Thu Oct 29, 10:04am

Thu Oct 29, 9:04am

Thu Oct 29, 8:04am

Thu Oct 29, 7:04am

Thu Oct 29, 6:04am

Thu Oct 29, 5:04am

Thu Oct 29, 4:04am

Thu Oct 29, 3:04am

Thu Oct 29, 2:04am

Thu Oct 29, 1:05am

Thu Oct 29, 12:04am

Wed Oct 28, 11:05pm

Wed Oct 28, 10:04pm

Wed Oct 28, 9:04pm

Wed Oct 28, 8:04pm

Wed Oct 28, 6:04pm

Wed Oct 28, 5:05pm

Wed Oct 28, 4:04pm

Wed Oct 28, 3:04pm

Wed Oct 28, 2:04pm

Wed Oct 28, 1:05pm

Wed Oct 28, 12:05pm

Wed Oct 28, 11:05am

Wed Oct 28, 10:04am

Wed Oct 28, 9:04am

Wed Oct 28, 8:04am

Wed Oct 28, 7:04am

Wed Oct 28, 6:04am

Wed Oct 28, 5:05am

Wed Oct 28, 4:04am

Wed Oct 28, 3:04am

Wed Oct 28, 2:04am

Wed Oct 28, 1:05am

Wed Oct 28, 12:04am

Tue Oct 27, 11:04pm

Tue Oct 27, 10:04pm

Tue Oct 27, 9:05pm

Tue Oct 27, 8:04pm

Tue Oct 27, 7:04pm

Tue Oct 27, 6:04pm

Tue Oct 27, 5:04pm

Tue Oct 27, 4:05pm

Tue Oct 27, 3:04pm

Tue Oct 27, 2:04pm

Tue Oct 27, 1:04pm

Tue Oct 27, 12:04pm

Tue Oct 27, 11:04am

Tue Oct 27, 10:04am

Tue Oct 27, 9:04am

Tue Oct 27, 8:04am

Tue Oct 27, 7:04am

Tue Oct 27, 6:04am

Tue Oct 27, 5:04am

Tue Oct 27, 4:04am

Tue Oct 27, 3:04am

Tue Oct 27, 2:05am

Tue Oct 27, 1:04am

Tue Oct 27, 12:04am

Mon Oct 26, 11:05pm

Mon Oct 26, 10:04pm

Mon Oct 26, 9:04pm

Mon Oct 26, 8:04pm

Mon Oct 26, 7:04pm

Mon Oct 26, 6:04pm

Mon Oct 26, 5:04pm

Mon Oct 26, 4:05pm

Mon Oct 26, 2:04pm

Mon Oct 26, 1:04pm

Mon Oct 26, 12:04pm

Mon Oct 26, 11:05am

Mon Oct 26, 10:04am

Mon Oct 26, 9:04am

Mon Oct 26, 8:04am

Mon Oct 26, 7:04am

Mon Oct 26, 6:04am

Mon Oct 26, 5:04am

Mon Oct 26, 4:04am

Mon Oct 26, 3:04am

Mon Oct 26, 2:04am

Mon Oct 26, 1:04am

Mon Oct 26, 12:04am

Sun Oct 25, 11:05pm

Sun Oct 25, 10:04pm

Sun Oct 25, 9:04pm

Sun Oct 25, 8:04pm

Sun Oct 25, 7:04pm

Sun Oct 25, 6:04pm

Sun Oct 25, 5:04pm

Sun Oct 25, 4:05pm

Sun Oct 25, 3:04pm

Sun Oct 25, 2:04pm

Sun Oct 25, 1:04pm

Sun Oct 25, 12:04pm

Sun Oct 25, 11:04am

Sun Oct 25, 10:04am

Sun Oct 25, 9:04am

Sun Oct 25, 8:04am

Sun Oct 25, 7:04am

Sun Oct 25, 6:04am

Sun Oct 25, 5:04am

Sun Oct 25, 4:04am

Sun Oct 25, 3:04am

Sun Oct 25, 2:04am

Sun Oct 25, 1:05am

Sun Oct 25, 12:04am

Sat Oct 24, 11:04pm

Sat Oct 24, 10:04pm

Sat Oct 24, 9:04pm

Sat Oct 24, 8:04pm

Sat Oct 24, 7:04pm

Sat Oct 24, 6:04pm

Sat Oct 24, 5:05pm

Sat Oct 24, 4:04pm

Sat Oct 24, 3:04pm

Sat Oct 24, 2:04pm

Sat Oct 24, 1:05pm

Sat Oct 24, 12:04pm

Sat Oct 24, 11:05am

Sat Oct 24, 10:05am

Sat Oct 24, 9:04am

Sat Oct 24, 8:04am

Sat Oct 24, 7:04am

Sat Oct 24, 6:04am

Sat Oct 24, 5:04am

Sat Oct 24, 4:04am

Sat Oct 24, 3:04am

Sat Oct 24, 2:04am

Sat Oct 24, 1:05am

Sat Oct 24, 12:04am

Fri Oct 23, 11:04pm

Fri Oct 23, 10:04pm

Fri Oct 23, 9:04pm

Fri Oct 23, 8:05pm

Fri Oct 23, 7:04pm

Fri Oct 23, 6:04pm

Fri Oct 23, 5:05pm

Fri Oct 23, 4:04pm

Fri Oct 23, 3:04pm

Fri Oct 23, 2:05pm

Fri Oct 23, 1:04pm

Fri Oct 23, 12:04pm

Fri Oct 23, 11:04am

Fri Oct 23, 10:04am

Fri Oct 23, 9:04am

Fri Oct 23, 8:04am

Meta data:

ID: f0ea3f31-9295-425c-909c-5ef1f7fa5df3
Link: https://api.weather.gov/products/f0ea3f31-9295-425c-909c-5ef1f7fa5df3